STARLINK-35309, 66323

Orbit data source: Space-Track

STARLINK-35309, 66323 is a payload satellite owned by SpaceX/Seattle (US) in LEO that was launched on Thu, 06 Nov 2025 UTC via an FALCON 9 launch vehicle from the Air Force Eastern Test Range (AFETR). Payload-class satellites include a variety of spacecraft equipped with specific instruments for various scientific and technological missions. These include communications satellites like Starlink; space stations such as the ISS; scientific satellites like the Hubble; Earth observation satellites from companies like Planet Labs, Umbra, and HawkEye 360; GPS; miniature CubeSats for education and research; and military/defense satellites.

Loading next visibility...
Identifier
66323, 2025-253E
Orbit
LEO
Country
Flag of USUS
Related business
Manufacturer
SpaceX/Seattle
Mission
Operational Commercial Communications
Bus & Motor
STARLINK V2MO, Unknown motor
Mass
575 kg wet, ~530 kg dry
Launch date (UTC)
2025-11-06 (7 months ago)
Launch vehicle
FALCON 9
Launch site
Air Force Eastern Test Range (AFETR)
Object type
Payload
Rocket body
Debris
Shape & HBR
Box + 2 Pan, 17.7 m
Radar Cross Section
36.964 m², Large (>1 m²)

Expand to show TLE details & history
Last TLE update: 14 hours ago

TLE from 14 hours ago
0 STARLINK-35309
1 66323U 25253E   26170.58215431  .00019603  00000-0  71966-3 0  9993
2 66323  43.0005 357.4105 0001319 248.0866 111.9845 15.27594665 35824
Epoch: 2026-06-19T13:58Z
TLE epoch observation values (Epoch: 2026-06-19T13:58:18.132Z)
Latitude
-0.00005°
Longitude
-119.97416°
Altitude
483.119 km
Speed
7.625 km/s
True Right ascension
23h 49m 38s
True Declination
0° 00' 00"
Sunlit
Object was in daylight at epoch
Visualization orbit readout
Latitude
Unknown
Longitude
Unknown
Altitude
Unknown
Speed
Unknown
Apparent Right ascension
Unknown
Apparent Declination
Unknown
Sunlit
N/A
Visualization observer readout
Local Sidereal Time
14:36:10
Azimuth
Unknown
Elevation
Unknown
Doppler factor
Unknown
Orbital elements
Apogee altitude
485.856 km
Perigee altitude
484.045 km
Semi-major axis
6,863.087 km
Eccentricity
0.00013
Inclination
43.0005°
RAAN
357.4105°
Arg. of periapsis
248.0866°
True anomaly
111.99851°
Mean anomaly
111.9845°
Eccentric anomaly
111.99151°
Mean motion
3.81737 °/min
Orbital period
94.31 mins
BSTAR
0.00071966
Loading maneuver chart data...
Computing Atmospheric mass density...
Loading historical data...
Loading historical data...
Loading historical data...
Loading historical data...
Loading historical data...
Loading historical data...
Loading historical data...

Documentation

Showing up to 5 results
|